Time,TemperatureF,DewpointF,PressureIn,WindDirection,WindDirectionDegrees,WindSpeedMPH,WindSpeedGustMPH,Humidity,HourlyPrecipIn,Conditions,Clouds,dailyrainin,SoftwareType,DateUTC
2013-08-21 00:01:00,69.0,62.6,30.10,ENE,65,0.0,0.0,80,0.00,,,0.00,WeatherCatV1.15B25,2013-08-21 04:01:00,
2013-08-21 00:06:00,69.2,62.4,30.10,ENE,65,0.0,0.0,79,0.00,,,0.00,WeatherCatV1.15B25,2013-08-21 04:06:00,
2013-08-21 00:11:00,69.2,62.4,30.10,ENE,65,0.0,0.0,79,0.00,,,0.00,WeatherCatV1.15B25,2013-08-21 04:11:00,
2013-08-21 00:16:00,69.3,62.5,30.10,ENE,65,0.0,0.0,79,0.00,,,0.00,WeatherCatV1.15B25,2013-08-21 04:16:00,
2013-08-21 00:21:00,69.3,62.5,30.10,ENE,65,0.0,0.0,79,0.00,,,0.00,WeatherCatV1.15B25,2013-08-21 04:21:00,
2013-08-21 00:26:00,69.2,62.4,30.10,ENE,65,0.0,0.0,79,0.00,,,0.00,WeatherCatV1.15B25,2013-08-21 04:26:00,
2013-08-21 00:31:00,69.1,62.3,30.11,ENE,65,0.0,0.0,79,0.00,,,0.00,WeatherCatV1.15B25,2013-08-21 04:31:00,
2013-08-21 00:36:00,69.0,62.2,30.11,North,358,0.0,1.0,79,0.00,,,0.00,WeatherCatV1.15B25,2013-08-21 04:36:00,
2013-08-21 00:41:00,69.0,62.2,30.10,North,358,0.0,0.0,79,0.00,,,0.00,WeatherCatV1.15B25,2013-08-21 04:41:00,
2013-08-21 00:46:00,68.9,62.1,30.11,North,359,0.0,0.0,79,0.00,,,0.00,WeatherCatV1.15B25,2013-08-21 04:46:00,
2013-08-21 00:51:00,68.8,62.4,30.11,North,358,0.0,0.0,80,0.00,,,0.00,WeatherCatV1.15B25,2013-08-21 04:51:00,
2013-08-21 00:56:00,68.7,62.3,30.10,North,359,0.0,0.0,80,0.00,,,0.00,WeatherCatV1.15B25,2013-08-21 04:56:00,
2013-08-21 01:01:00,68.5,62.1,30.11,North,358,0.0,0.0,80,0.00,,,0.00,WeatherCatV1.15B25,2013-08-21 05:01:00,
2013-08-21 01:06:00,68.2,62.1,30.11,North,359,0.0,0.0,81,0.00,,,0.00,WeatherCatV1.15B25,2013-08-21 05:06:00,
2013-08-21 01:11:00,68.1,62.0,30.11,North,359,0.0,0.0,81,0.00,,,0.00,WeatherCatV1.15B25,2013-08-21 05:11:00,
2013-08-21 01:16:00,67.9,61.8,30.11,North,358,0.0,0.0,81,0.00,,,0.00,WeatherCatV1.15B25,2013-08-21 05:16:00,
2013-08-21 01:21:00,67.9,61.8,30.10,North,359,0.0,0.0,81,0.00,,,0.00,WeatherCatV1.15B25,2013-08-21 05:21:00,
2013-08-21 01:26:00,67.8,61.7,30.11,North,359,0.0,0.0,81,0.00,,,0.00,WeatherCatV1.15B25,2013-08-21 05:26:00,
2013-08-21 01:31:00,67.8,61.7,30.11,North,358,0.0,0.0,81,0.00,,,0.00,WeatherCatV1.15B25,2013-08-21 05:31:00,
2013-08-21 01:36:00,67.7,61.7,30.11,North,358,0.0,0.0,81,0.00,,,0.00,WeatherCatV1.15B25,2013-08-21 05:36:00,
2013-08-21 01:41:00,67.7,61.7,30.11,North,358,0.0,0.0,81,0.00,,,0.00,WeatherCatV1.15B25,2013-08-21 05:41:00,
2013-08-21 01:46:00,67.7,61.7,30.11,North,358,0.0,0.0,81,0.00,,,0.00,WeatherCatV1.15B25,2013-08-21 05:46:00,
2013-08-21 01:51:00,67.6,61.6,30.11,North,358,0.0,0.0,81,0.00,,,0.00,WeatherCatV1.15B25,2013-08-21 05:51:00,
2013-08-21 01:56:00,67.5,61.8,30.11,North,359,0.0,0.0,82,0.00,,,0.00,WeatherCatV1.15B25,2013-08-21 05:56:00,
2013-08-21 02:01:00,67.4,61.7,30.11,North,358,0.0,0.0,82,0.00,,,0.00,WeatherCatV1.15B25,2013-08-21 06:01:00,
2013-08-21 02:06:00,67.2,61.5,30.11,North,358,0.0,0.0,82,0.00,,,0.00,WeatherCatV1.15B25,2013-08-21 06:06:00,
2013-08-21 02:11:00,67.1,61.8,30.11,North,359,0.0,0.0,83,0.00,,,0.00,WeatherCatV1.15B25,2013-08-21 06:11:00,
2013-08-21 02:16:00,66.9,61.6,30.11,North,359,0.0,0.0,83,0.00,,,0.00,WeatherCatV1.15B25,2013-08-21 06:16:00,
2013-08-21 02:21:00,66.6,61.6,30.11,North,359,0.0,0.0,84,0.00,,,0.00,WeatherCatV1.15B25,2013-08-21 06:21:00,
2013-08-21 02:26:00,66.3,61.6,30.11,North,359,0.0,0.0,85,0.00,,,0.00,WeatherCatV1.15B25,2013-08-21 06:26:00,
2013-08-21 02:31:00,66.0,61.4,30.11,North,359,0.0,0.0,85,0.00,,,0.00,WeatherCatV1.15B25,2013-08-21 06:31:00,
2013-08-21 02:36:00,65.7,61.4,30.11,North,359,0.0,0.0,86,0.00,,,0.00,WeatherCatV1.15B25,2013-08-21 06:36:00,
2013-08-21 02:41:00,65.4,61.1,30.11,North,358,0.0,0.0,86,0.00,,,0.00,WeatherCatV1.15B25,2013-08-21 06:41:00,
2013-08-21 02:46:00,65.2,61.2,30.11,North,358,0.0,0.0,87,0.00,,,0.00,WeatherCatV1.15B25,2013-08-21 06:46:00,
2013-08-21 02:51:00,65.1,61.1,30.11,North,359,0.0,0.0,87,0.00,,,0.00,WeatherCatV1.15B25,2013-08-21 06:51:00,
2013-08-21 02:56:00,64.9,60.9,30.11,North,358,0.0,0.0,87,0.00,,,0.00,WeatherCatV1.15B25,2013-08-21 06:56:00,
2013-08-21 03:01:00,64.8,61.2,30.11,North,359,0.0,0.0,88,0.00,,,0.00,WeatherCatV1.15B25,2013-08-21 07:01:00,
2013-08-21 03:06:00,64.7,61.1,30.11,North,358,0.0,0.0,88,0.00,,,0.00,WeatherCatV1.15B25,2013-08-21 07:06:00,
2013-08-21 03:11:00,64.6,61.0,30.11,North,359,0.0,0.0,88,0.00,,,0.00,WeatherCatV1.15B25,2013-08-21 07:11:00,
2013-08-21 03:16:00,64.4,60.8,30.11,North,358,0.0,0.0,88,0.00,,,0.00,WeatherCatV1.15B25,2013-08-21 07:16:00,
2013-08-21 03:21:00,64.3,61.0,30.11,North,359,0.0,0.0,89,0.00,,,0.00,WeatherCatV1.15B25,2013-08-21 07:21:00,
2013-08-21 03:26:00,64.1,60.8,30.11,North,358,0.0,0.0,89,0.00,,,0.00,WeatherCatV1.15B25,2013-08-21 07:26:00,
2013-08-21 03:31:00,64.0,60.7,30.11,North,359,0.0,0.0,89,0.00,,,0.00,WeatherCatV1.15B25,2013-08-21 07:31:00,
2013-08-21 03:36:00,63.9,60.6,30.11,North,359,0.0,0.0,89,0.00,,,0.00,WeatherCatV1.15B25,2013-08-21 07:36:00,
2013-08-21 03:41:00,63.7,60.7,30.11,North,358,0.0,0.0,90,0.00,,,0.00,WeatherCatV1.15B25,2013-08-21 07:41:00,
2013-08-21 03:46:00,63.6,60.6,30.11,North,358,0.0,0.0,90,0.00,,,0.00,WeatherCatV1.15B25,2013-08-21 07:46:00,
2013-08-21 03:51:00,63.5,60.5,30.11,North,358,0.0,0.0,90,0.00,,,0.00,WeatherCatV1.15B25,2013-08-21 07:51:00,
2013-08-21 03:56:00,63.3,60.3,30.12,North,359,0.0,0.0,90,0.00,,,0.00,WeatherCatV1.15B25,2013-08-21 07:56:00,
2013-08-21 04:01:00,63.1,60.1,30.12,North,359,0.0,0.0,90,0.00,,,0.00,WeatherCatV1.15B25,2013-08-21 08:01:00,
2013-08-21 04:06:00,62.9,60.2,30.12,North,358,0.0,0.0,91,0.00,,,0.00,WeatherCatV1.15B25,2013-08-21 08:06:00,
2013-08-21 04:11:00,62.8,60.1,30.12,North,359,0.0,0.0,91,0.00,,,0.00,WeatherCatV1.15B25,2013-08-21 08:11:00,
2013-08-21 04:16:00,62.6,59.9,30.12,North,359,0.0,0.0,91,0.00,,,0.00,WeatherCatV1.15B25,2013-08-21 08:16:00,
2013-08-21 04:21:00,62.5,59.8,30.12,North,358,0.0,0.0,91,0.00,,,0.00,WeatherCatV1.15B25,2013-08-21 08:21:00,
2013-08-21 04:26:00,62.3,59.9,30.12,North,358,0.0,0.0,92,0.00,,,0.00,WeatherCatV1.15B25,2013-08-21 08:26:00,
2013-08-21 04:31:00,62.3,59.9,30.12,North,358,0.0,0.0,92,0.00,,,0.00,WeatherCatV1.15B25,2013-08-21 08:31:00,
2013-08-21 04:36:00,62.2,59.8,30.12,North,358,0.0,0.0,92,0.00,,,0.00,WeatherCatV1.15B25,2013-08-21 08:36:00,
2013-08-21 04:41:00,62.1,59.7,30.12,North,359,0.0,0.0,92,0.00,,,0.00,WeatherCatV1.15B25,2013-08-21 08:41:00,
2013-08-21 04:46:00,62.1,59.7,30.12,North,358,0.0,0.0,92,0.00,,,0.00,WeatherCatV1.15B25,2013-08-21 08:46:00,
2013-08-21 04:51:00,62.1,59.7,30.12,North,358,0.0,0.0,92,0.00,,,0.00,WeatherCatV1.15B25,2013-08-21 08:51:00,
2013-08-21 04:56:00,62.0,59.6,30.12,North,359,0.0,0.0,92,0.00,,,0.00,WeatherCatV1.15B25,2013-08-21 08:56:00,
2013-08-21 05:01:00,61.8,59.4,30.12,North,359,0.0,0.0,92,0.00,,,0.00,WeatherCatV1.15B25,2013-08-21 09:01:00,
2013-08-21 05:06:00,61.8,59.8,30.12,North,359,0.0,0.0,93,0.00,,,0.00,WeatherCatV1.15B25,2013-08-21 09:06:00,
2013-08-21 05:11:00,61.7,59.7,30.12,North,359,0.0,0.0,93,0.00,,,0.00,WeatherCatV1.15B25,2013-08-21 09:11:00,
2013-08-21 05:16:00,61.7,59.7,30.13,North,358,0.0,0.0,93,0.00,,,0.00,WeatherCatV1.15B25,2013-08-21 09:16:00,
2013-08-21 05:21:00,61.6,59.6,30.13,North,359,0.0,0.0,93,0.00,,,0.00,WeatherCatV1.15B25,2013-08-21 09:21:00,
2013-08-21 05:26:00,61.6,59.6,30.13,North,359,0.0,0.0,93,0.00,,,0.00,WeatherCatV1.15B25,2013-08-21 09:26:00,
2013-08-21 05:31:00,61.6,59.9,30.13,North,359,0.0,0.0,94,0.00,,,0.00,WeatherCatV1.15B25,2013-08-21 09:31:00,
2013-08-21 05:36:00,61.5,59.5,30.13,North,359,0.0,0.0,93,0.00,,,0.00,WeatherCatV1.15B25,2013-08-21 09:36:00,
2013-08-21 05:41:00,61.4,59.4,30.13,North,358,0.0,0.0,93,0.00,,,0.00,WeatherCatV1.15B25,2013-08-21 09:41:00,
2013-08-21 05:46:00,61.2,59.2,30.13,North,359,0.0,0.0,93,0.00,,,0.00,WeatherCatV1.15B25,2013-08-21 09:46:00,
2013-08-21 05:51:00,61.1,59.4,30.13,North,358,0.0,0.0,94,0.00,,,0.00,WeatherCatV1.15B25,2013-08-21 09:51:00,
2013-08-21 05:56:00,61.1,59.4,30.13,North,358,0.0,0.0,94,0.00,,,0.00,WeatherCatV1.15B25,2013-08-21 09:56:00,
2013-08-21 06:01:00,61.0,59.3,30.13,North,359,0.0,0.0,94,0.00,,,0.00,WeatherCatV1.15B25,2013-08-21 10:01:00,
2013-08-21 06:06:00,60.9,59.2,30.14,North,358,0.0,0.0,94,0.00,,,0.00,WeatherCatV1.15B25,2013-08-21 10:06:00,
2013-08-21 06:11:00,60.9,59.2,30.14,North,358,0.0,0.0,94,0.00,,,0.00,WeatherCatV1.15B25,2013-08-21 10:11:00,
2013-08-21 06:16:00,60.9,59.2,30.14,North,359,0.0,0.0,94,0.00,,,0.00,WeatherCatV1.15B25,2013-08-21 10:16:00,
2013-08-21 06:21:00,61.0,59.6,30.14,North,359,0.0,0.0,95,0.00,,,0.00,WeatherCatV1.15B25,2013-08-21 10:21:00,
2013-08-21 06:26:00,61.1,59.7,30.14,North,358,0.0,0.0,95,0.00,,,0.00,WeatherCatV1.15B25,2013-08-21 10:26:00,
2013-08-21 06:31:00,61.3,59.9,30.14,North,359,0.0,0.0,95,0.00,,,0.00,WeatherCatV1.15B25,2013-08-21 10:31:00,
2013-08-21 06:36:00,61.4,60.0,30.14,North,359,0.0,0.0,95,0.00,,,0.00,WeatherCatV1.15B25,2013-08-21 10:36:00,
2013-08-21 06:41:00,61.5,60.1,30.14,North,358,0.0,0.0,95,0.00,,,0.00,WeatherCatV1.15B25,2013-08-21 10:41:00,
2013-08-21 06:46:00,61.7,60.2,30.14,North,358,0.0,0.0,95,0.00,,,0.00,WeatherCatV1.15B25,2013-08-21 10:46:00,
2013-08-21 06:51:00,62.0,60.5,30.14,North,358,0.0,0.0,95,0.00,,,0.00,WeatherCatV1.15B25,2013-08-21 10:51:00,
2013-08-21 06:56:00,62.3,60.8,30.15,North,359,0.0,0.0,95,0.00,,,0.00,WeatherCatV1.15B25,2013-08-21 10:56:00,
2013-08-21 07:01:00,62.9,61.4,30.15,North,359,0.0,0.0,95,0.00,,,0.00,WeatherCatV1.15B25,2013-08-21 11:01:00,
2013-08-21 07:06:00,63.9,62.4,30.15,North,358,0.0,0.0,95,0.00,,,0.00,WeatherCatV1.15B25,2013-08-21 11:06:00,
2013-08-21 07:11:00,65.4,63.9,30.15,North,358,0.0,0.0,95,0.00,,,0.00,WeatherCatV1.15B25,2013-08-21 11:11:00,
2013-08-21 07:16:00,67.2,64.8,30.15,North,358,0.0,0.0,92,0.00,,,0.00,WeatherCatV1.15B25,2013-08-21 11:16:00,
2013-08-21 07:21:00,68.9,64.9,30.15,North,358,0.0,0.0,87,0.00,,,0.00,WeatherCatV1.15B25,2013-08-21 11:21:00,
2013-08-21 07:26:00,70.1,64.3,30.15,North,358,0.0,0.0,82,0.00,,,0.00,WeatherCatV1.15B25,2013-08-21 11:26:00,
2013-08-21 07:31:00,71.5,64.6,30.15,North,358,0.0,0.0,79,0.00,,,0.00,WeatherCatV1.15B25,2013-08-21 11:31:00,
2013-08-21 07:36:00,72.2,64.9,30.15,North,358,0.0,0.0,78,0.00,,,0.00,WeatherCatV1.15B25,2013-08-21 11:36:00,
2013-08-21 07:41:00,73.3,65.3,30.15,North,358,0.0,0.0,76,0.00,,,0.00,WeatherCatV1.15B25,2013-08-21 11:41:00,
2013-08-21 07:46:00,74.6,65.7,30.15,North,358,0.0,0.0,74,0.00,,,0.00,WeatherCatV1.15B25,2013-08-21 11:46:00,
2013-08-21 07:51:00,76.0,65.5,30.15,North,359,0.0,0.0,70,0.00,,,0.00,WeatherCatV1.15B25,2013-08-21 11:51:00,
2013-08-21 07:56:00,76.3,64.5,30.15,NNE,19,0.0,0.0,67,0.00,,,0.00,WeatherCatV1.15B25,2013-08-21 11:56:00,
2013-08-21 08:01:00,75.7,64.8,30.15,NNE,19,0.0,1.0,69,0.00,,,0.00,WeatherCatV1.15B25,2013-08-21 12:01:00,
2013-08-21 08:06:00,76.1,64.8,30.15,ESE,113,0.0,0.0,68,0.00,,,0.00,WeatherCatV1.15B25,2013-08-21 12:06:00,
2013-08-21 08:11:00,76.8,64.6,30.15,SE,131,1.0,1.0,66,0.00,,,0.00,WeatherCatV1.15B25,2013-08-21 12:11:00,
2013-08-21 08:16:00,76.4,64.6,30.15,SW,221,0.0,0.0,67,0.00,,,0.00,WeatherCatV1.15B25,2013-08-21 12:16:00,
2013-08-21 08:21:00,77.1,64.8,30.15,ESE,113,0.0,1.0,66,0.00,,,0.00,WeatherCatV1.15B25,2013-08-21 12:21:00,
2013-08-21 08:26:00,77.5,64.3,30.15,SSW,208,0.0,1.0,64,0.00,,,0.00,WeatherCatV1.15B25,2013-08-21 12:26:00,
2013-08-21 08:31:00,77.4,63.8,30.15,SW,214,0.0,1.0,63,0.00,,,0.00,WeatherCatV1.15B25,2013-08-21 12:31:00,
2013-08-21 08:36:00,77.3,64.2,30.15,SSE,161,0.0,3.0,64,0.00,,,0.00,WeatherCatV1.15B25,2013-08-21 12:36:00,
2013-08-21 08:41:00,77.5,64.3,30.15,East,85,0.0,2.0,64,0.00,,,0.00,WeatherCatV1.15B25,2013-08-21 12:41:00,
2013-08-21 08:46:00,78.1,65.8,30.15,East,88,0.0,1.0,66,0.00,,,0.00,WeatherCatV1.15B25,2013-08-21 12:46:00,
2013-08-21 08:51:00,78.5,64.4,30.15,South,174,0.0,3.0,62,0.00,,,0.00,WeatherCatV1.15B25,2013-08-21 12:51:00,
2013-08-21 08:56:00,78.7,64.6,30.15,SSW,194,0.0,2.0,62,0.00,,,0.00,WeatherCatV1.15B25,2013-08-21 12:56:00,
2013-08-21 09:01:00,78.9,64.3,30.15,SE,143,0.0,2.0,61,0.00,,,0.00,WeatherCatV1.15B25,2013-08-21 13:01:00,
2013-08-21 09:06:00,79.4,64.8,30.15,SSW,201,2.0,2.0,61,0.00,,,0.00,WeatherCatV1.15B25,2013-08-21 13:06:00,
2013-08-21 09:11:00,79.6,64.9,30.15,SSW,203,0.0,0.0,61,0.00,,,0.00,WeatherCatV1.15B25,2013-08-21 13:11:00,
2013-08-21 09:16:00,80.4,64.2,30.15,SW,224,0.0,1.0,58,0.00,,,0.00,WeatherCatV1.15B25,2013-08-21 13:16:00,
2013-08-21 09:21:00,80.5,64.3,30.15,SW,222,1.0,2.0,58,0.00,,,0.00,WeatherCatV1.15B25,2013-08-21 13:21:00,
2013-08-21 09:26:00,80.6,63.9,30.15,SW,217,1.0,1.0,57,0.00,,,0.00,WeatherCatV1.15B25,2013-08-21 13:26:00,
2013-08-21 09:31:00,80.8,64.6,30.15,SSE,154,0.0,1.0,58,0.00,,,0.00,WeatherCatV1.15B25,2013-08-21 13:31:00,
2013-08-21 09:36:00,80.7,64.5,30.15,ENE,64,0.0,2.0,58,0.00,,,0.00,WeatherCatV1.15B25,2013-08-21 13:36:00,
2013-08-21 09:41:00,80.7,64.5,30.15,NNW,332,1.0,2.0,58,0.00,,,0.00,WeatherCatV1.15B25,2013-08-21 13:41:00,
2013-08-21 09:46:00,81.1,64.9,30.15,SE,141,0.0,0.0,58,0.00,,,0.00,WeatherCatV1.15B25,2013-08-21 13:46:00,
2013-08-21 09:51:00,81.6,66.3,30.15,East,94,1.0,1.0,60,0.00,,,0.00,WeatherCatV1.15B25,2013-08-21 13:51:00,
2013-08-21 09:56:00,81.8,64.5,30.15,ESE,119,0.0,1.0,56,0.00,,,0.00,WeatherCatV1.15B25,2013-08-21 13:56:00,
2013-08-21 10:01:00,82.1,64.8,30.15,ENE,63,1.0,2.0,56,0.00,,,0.00,WeatherCatV1.15B25,2013-08-21 14:01:00,
2013-08-21 10:06:00,81.7,65.5,30.15,ENE,64,1.0,3.0,58,0.00,,,0.00,WeatherCatV1.15B25,2013-08-21 14:06:00,
2013-08-21 10:11:00,81.7,65.5,30.15,NNW,334,1.0,1.0,58,0.00,,,0.00,WeatherCatV1.15B25,2013-08-21 14:11:00,
2013-08-21 10:16:00,82.5,66.7,30.14,South,191,0.0,1.0,59,0.00,,,0.00,WeatherCatV1.15B25,2013-08-21 14:16:00,
2013-08-21 10:21:00,83.1,65.7,30.14,NNE,33,1.0,3.0,56,0.00,,,0.00,WeatherCatV1.15B25,2013-08-21 14:21:00,
2013-08-21 10:26:00,83.0,65.1,30.14,East,86,2.0,3.0,55,0.00,,,0.00,WeatherCatV1.15B25,2013-08-21 14:26:00,
2013-08-21 10:31:00,83.0,65.1,30.14,SSW,198,2.0,2.0,55,0.00,,,0.00,WeatherCatV1.15B25,2013-08-21 14:31:00,
2013-08-21 10:36:00,83.7,65.8,30.14,SW,223,0.0,2.0,55,0.00,,,0.00,WeatherCatV1.15B25,2013-08-21 14:36:00,
2013-08-21 10:41:00,84.6,65.6,30.14,NNW,339,1.0,2.0,53,0.00,,,0.00,WeatherCatV1.15B25,2013-08-21 14:41:00,
2013-08-21 10:46:00,84.6,65.0,30.14,East,80,0.0,4.0,52,0.00,,,0.00,WeatherCatV1.15B25,2013-08-21 14:46:00,
2013-08-21 10:51:00,84.8,65.7,30.14,East,89,0.0,1.0,53,0.00,,,0.00,WeatherCatV1.15B25,2013-08-21 14:51:00,
2013-08-21 10:56:00,85.7,65.5,30.14,NE,54,4.0,4.0,51,0.00,,,0.00,WeatherCatV1.15B25,2013-08-21 14:56:00,
2013-08-21 11:01:00,85.2,65.6,30.13,ENE,68,0.0,2.0,52,0.00,,,0.00,WeatherCatV1.15B25,2013-08-21 15:01:00,
2013-08-21 11:06:00,85.5,66.9,30.14,SSW,212,1.0,2.0,54,0.00,,,0.00,WeatherCatV1.15B25,2013-08-21 15:06:00,
2013-08-21 11:11:00,85.7,65.5,30.14,ENE,64,0.0,1.0,51,0.00,,,0.00,WeatherCatV1.15B25,2013-08-21 15:11:00,
2013-08-21 11:16:00,86.2,65.9,30.14,SW,226,0.0,2.0,51,0.00,,,0.00,WeatherCatV1.15B25,2013-08-21 15:16:00,
2013-08-21 11:21:00,87.1,66.7,30.14,ESE,105,0.0,4.0,51,0.00,,,0.00,WeatherCatV1.15B25,2013-08-21 15:21:00,
2013-08-21 11:26:00,87.7,66.1,30.14,WSW,248,0.0,2.0,49,0.00,,,0.00,WeatherCatV1.15B25,2013-08-21 15:26:00,
2013-08-21 11:31:00,88.5,66.3,30.14,North,356,0.0,1.0,48,0.00,,,0.00,WeatherCatV1.15B25,2013-08-21 15:31:00,
2013-08-21 11:36:00,88.6,65.1,30.13,WSW,238,2.0,4.0,46,0.00,,,0.00,WeatherCatV1.15B25,2013-08-21 15:36:00,
2013-08-21 11:41:00,88.6,65.1,30.13,ESE,113,2.0,3.0,46,0.00,,,0.00,WeatherCatV1.15B25,2013-08-21 15:41:00,
2013-08-21 11:46:00,88.6,63.9,30.13,SSW,208,2.0,3.0,44,0.00,,,0.00,WeatherCatV1.15B25,2013-08-21 15:46:00,
2013-08-21 11:51:00,88.6,64.5,30.13,East,80,1.0,3.0,45,0.00,,,0.00,WeatherCatV1.15B25,2013-08-21 15:51:00,
2013-08-21 11:56:00,88.4,64.9,30.13,SSE,159,1.0,2.0,46,0.00,,,0.00,WeatherCatV1.15B25,2013-08-21 15:56:00,
2013-08-21 12:01:00,88.4,64.9,30.13,SE,145,2.0,3.0,46,0.00,,,0.00,WeatherCatV1.15B25,2013-08-21 16:01:00,
2013-08-21 12:06:00,88.4,66.2,30.12,ENE,78,1.0,2.0,48,0.00,,,0.00,WeatherCatV1.15B25,2013-08-21 16:06:00,
2013-08-21 12:11:00,88.5,65.0,30.12,South,180,0.0,3.0,46,0.00,,,0.00,WeatherCatV1.15B25,2013-08-21 16:11:00,
2013-08-21 12:16:00,88.9,64.8,30.12,East,97,2.0,2.0,45,0.00,,,0.00,WeatherCatV1.15B25,2013-08-21 16:16:00,
2013-08-21 12:21:00,89.4,63.9,30.12,North,9,0.0,2.0,43,0.00,,,0.00,WeatherCatV1.15B25,2013-08-21 16:21:00,
2013-08-21 12:26:00,89.6,64.8,30.12,ENE,75,3.0,7.0,44,0.00,,,0.00,WeatherCatV1.15B25,2013-08-21 16:26:00,
2013-08-21 12:31:00,89.6,63.4,30.12,ESE,122,0.0,3.0,42,0.00,,,0.00,WeatherCatV1.15B25,2013-08-21 16:31:00,
2013-08-21 12:36:00,89.7,64.2,30.11,SSW,197,2.0,2.0,43,0.00,,,0.00,WeatherCatV1.15B25,2013-08-21 16:36:00,
2013-08-21 12:41:00,89.9,64.4,30.11,SSW,200,3.0,3.0,43,0.00,,,0.00,WeatherCatV1.15B25,2013-08-21 16:41:00,
2013-08-21 12:46:00,90.1,62.5,30.11,SE,129,0.0,1.0,40,0.00,,,0.00,WeatherCatV1.15B25,2013-08-21 16:46:00,
2013-08-21 12:51:00,90.5,61.4,30.11,South,172,1.0,3.0,38,0.00,,,0.00,WeatherCatV1.15B25,2013-08-21 16:51:00,
2013-08-21 12:57:00,90.2,61.8,30.11,SSW,210,3.0,4.0,39,0.00,,,0.00,WeatherCatV1.15B25,2013-08-21 16:57:00,
2013-08-21 13:02:00,90.3,63.4,30.11,SW,214,0.0,5.0,41,0.00,,,0.00,WeatherCatV1.15B25,2013-08-21 17:02:00,
2013-08-21 13:07:00,90.1,61.8,30.11,SE,142,1.0,3.0,39,0.00,,,0.00,WeatherCatV1.15B25,2013-08-21 17:07:00,
2013-08-21 13:12:00,90.5,63.5,30.11,South,177,1.0,3.0,41,0.00,,,0.00,WeatherCatV1.15B25,2013-08-21 17:12:00,
2013-08-21 13:17:00,90.9,63.2,30.11,SW,214,0.0,2.0,40,0.00,,,0.00,WeatherCatV1.15B25,2013-08-21 17:17:00,
2013-08-21 13:22:00,90.7,63.0,30.10,SW,232,2.0,3.0,40,0.00,,,0.00,WeatherCatV1.15B25,2013-08-21 17:22:00,
2013-08-21 13:27:00,90.4,62.0,30.10,East,94,1.0,4.0,39,0.00,,,0.00,WeatherCatV1.15B25,2013-08-21 17:27:00,
2013-08-21 13:32:00,90.4,62.7,30.10,SW,224,2.0,2.0,40,0.00,,,0.00,WeatherCatV1.15B25,2013-08-21 17:32:00,
2013-08-21 13:37:00,90.5,62.1,30.10,SE,138,1.0,5.0,39,0.00,,,0.00,WeatherCatV1.15B25,2013-08-21 17:37:00,
2013-08-21 13:42:00,90.4,63.4,30.10,SSW,208,0.0,1.0,41,0.00,,,0.00,WeatherCatV1.15B25,2013-08-21 17:42:00,
2013-08-21 13:47:00,91.2,62.7,30.10,SE,124,1.0,4.0,39,0.00,,,0.00,WeatherCatV1.15B25,2013-08-21 17:47:00,
2013-08-21 13:52:00,91.2,62.7,30.10,WSW,240,1.0,3.0,39,0.00,,,0.00,WeatherCatV1.15B25,2013-08-21 17:52:00,
2013-08-21 13:57:00,91.1,62.6,30.09,NNW,332,1.0,4.0,39,0.00,,,0.00,WeatherCatV1.15B25,2013-08-21 17:57:00,
2013-08-21 14:02:00,90.7,62.3,30.09,SW,226,3.0,3.0,39,0.00,,,0.00,WeatherCatV1.15B25,2013-08-21 18:02:00,
2013-08-21 14:07:00,90.4,63.4,30.09,East,95,0.0,3.0,41,0.00,,,0.00,WeatherCatV1.15B25,2013-08-21 18:07:00,
2013-08-21 14:12:00,90.6,62.9,30.09,South,179,6.0,6.0,40,0.00,,,0.00,WeatherCatV1.15B25,2013-08-21 18:12:00,
2013-08-21 14:17:00,90.6,64.3,30.09,ESE,122,0.0,2.0,42,0.00,,,0.00,WeatherCatV1.15B25,2013-08-21 18:17:00,
2013-08-21 14:22:00,91.1,64.1,30.09,SSW,197,1.0,5.0,41,0.00,,,0.00,WeatherCatV1.15B25,2013-08-21 18:22:00,
2013-08-21 14:27:00,91.0,64.0,30.08,SSE,156,0.0,1.0,41,0.00,,,0.00,WeatherCatV1.15B25,2013-08-21 18:27:00,
2013-08-21 14:32:00,91.5,63.7,30.08,SSW,210,2.0,3.0,40,0.00,,,0.00,WeatherCatV1.15B25,2013-08-21 18:32:00,
2013-08-21 14:37:00,91.2,62.7,30.08,ENE,68,0.0,2.0,39,0.00,,,0.00,WeatherCatV1.15B25,2013-08-21 18:37:00,
2013-08-21 14:42:00,91.3,62.8,30.08,SE,131,0.0,3.0,39,0.00,,,0.00,WeatherCatV1.15B25,2013-08-21 18:42:00,
2013-08-21 14:47:00,91.3,62.8,30.08,SW,224,2.0,7.0,39,0.00,,,0.00,WeatherCatV1.15B25,2013-08-21 18:47:00,
2013-08-21 14:52:00,90.7,63.0,30.08,SSW,210,0.0,4.0,40,0.00,,,0.00,WeatherCatV1.15B25,2013-08-21 18:52:00,
2013-08-21 14:57:00,91.1,64.8,30.08,East,98,1.0,1.0,42,0.00,,,0.00,WeatherCatV1.15B25,2013-08-21 18:57:00,
2013-08-21 15:02:00,91.4,62.9,30.08,WSW,246,1.0,2.0,39,0.00,,,0.00,WeatherCatV1.15B25,2013-08-21 19:02:00,
2013-08-21 15:07:00,91.3,63.5,30.08,NNW,340,0.0,3.0,40,0.00,,,0.00,WeatherCatV1.15B25,2013-08-21 19:07:00,
2013-08-21 15:12:00,91.0,63.3,30.08,SW,236,0.0,3.0,40,0.00,,,0.00,WeatherCatV1.15B25,2013-08-21 19:12:00,
2013-08-21 15:17:00,91.2,64.2,30.08,South,181,3.0,3.0,41,0.00,,,0.00,WeatherCatV1.15B25,2013-08-21 19:17:00,
2013-08-21 15:22:00,91.3,64.3,30.07,NNW,327,0.0,2.0,41,0.00,,,0.00,WeatherCatV1.15B25,2013-08-21 19:22:00,
2013-08-21 15:27:00,91.5,63.7,30.07,SSW,210,1.0,1.0,40,0.00,,,0.00,WeatherCatV1.15B25,2013-08-21 19:27:00,
2013-08-21 15:32:00,91.4,63.6,30.07,East,98,1.0,2.0,40,0.00,,,0.00,WeatherCatV1.15B25,2013-08-21 19:32:00,
2013-08-21 15:37:00,91.4,65.0,30.07,SSW,198,1.0,2.0,42,0.00,,,0.00,WeatherCatV1.15B25,2013-08-21 19:37:00,
2013-08-21 15:42:00,90.9,63.2,30.07,South,188,2.0,4.0,40,0.00,,,0.00,WeatherCatV1.15B25,2013-08-21 19:42:00,
2013-08-21 15:47:00,90.3,63.4,30.06,SSE,158,0.0,3.0,41,0.00,,,0.00,WeatherCatV1.15B25,2013-08-21 19:47:00,
2013-08-21 15:52:00,90.1,63.9,30.07,East,100,0.0,1.0,42,0.00,,,0.00,WeatherCatV1.15B25,2013-08-21 19:52:00,
2013-08-21 15:57:00,89.9,63.7,30.07,NNW,346,2.0,3.0,42,0.00,,,0.00,WeatherCatV1.15B25,2013-08-21 19:57:00,
2013-08-21 16:02:00,89.7,63.5,30.06,WNW,288,0.0,1.0,42,0.00,,,0.00,WeatherCatV1.15B25,2013-08-21 20:02:00,
2013-08-21 16:07:00,89.5,65.3,30.06,South,169,0.0,0.0,45,0.00,,,0.00,WeatherCatV1.15B25,2013-08-21 20:07:00,
2013-08-21 16:12:00,89.4,64.6,30.06,East,85,1.0,2.0,44,0.00,,,0.00,WeatherCatV1.15B25,2013-08-21 20:12:00,
2013-08-21 16:17:00,89.1,64.3,30.06,SSE,159,0.0,2.0,44,0.00,,,0.00,WeatherCatV1.15B25,2013-08-21 20:17:00,
2013-08-21 16:22:00,88.8,64.0,30.06,ENE,64,1.0,1.0,44,0.00,,,0.00,WeatherCatV1.15B25,2013-08-21 20:22:00,
2013-08-21 16:27:00,88.6,63.9,30.06,East,82,1.0,5.0,44,0.00,,,0.00,WeatherCatV1.15B25,2013-08-21 20:27:00,
2013-08-21 16:32:00,88.2,64.1,30.05,SSE,153,0.0,1.0,45,0.00,,,0.00,WeatherCatV1.15B25,2013-08-21 20:32:00,
2013-08-21 16:37:00,88.3,63.6,30.06,ESE,115,1.0,3.0,44,0.00,,,0.00,WeatherCatV1.15B25,2013-08-21 20:37:00,
2013-08-21 16:42:00,88.3,64.2,30.05,ENE,60,0.0,1.0,45,0.00,,,0.00,WeatherCatV1.15B25,2013-08-21 20:42:00,
2013-08-21 16:47:00,88.2,64.1,30.05,NE,42,0.0,1.0,45,0.00,,,0.00,WeatherCatV1.15B25,2013-08-21 20:47:00,
2013-08-21 16:52:00,88.2,63.5,30.05,East,79,0.0,1.0,44,0.00,,,0.00,WeatherCatV1.15B25,2013-08-21 20:52:00,
2013-08-21 16:57:00,87.9,63.2,30.05,SW,235,0.0,0.0,44,0.00,,,0.00,WeatherCatV1.15B25,2013-08-21 20:57:00,
2013-08-21 17:02:00,87.7,63.0,30.05,WSW,242,2.0,5.0,44,0.00,,,0.00,WeatherCatV1.15B25,2013-08-21 21:02:00,
2013-08-21 17:07:00,87.7,63.0,30.05,SSW,207,2.0,3.0,44,0.00,,,0.00,WeatherCatV1.15B25,2013-08-21 21:07:00,
2013-08-21 17:12:00,87.6,63.6,30.04,SE,146,0.0,2.0,45,0.00,,,0.00,WeatherCatV1.15B25,2013-08-21 21:12:00,
2013-08-21 17:17:00,87.5,62.9,30.04,SW,214,1.0,1.0,44,0.00,,,0.00,WeatherCatV1.15B25,2013-08-21 21:17:00,
2013-08-21 17:22:00,87.5,62.9,30.04,SW,225,0.0,1.0,44,0.00,,,0.00,WeatherCatV1.15B25,2013-08-21 21:22:00,
2013-08-21 17:27:00,87.3,63.3,30.05,ENE,78,0.0,6.0,45,0.00,,,0.00,WeatherCatV1.15B25,2013-08-21 21:27:00,
2013-08-21 17:32:00,87.0,63.7,30.04,SSE,168,1.0,2.0,46,0.00,,,0.00,WeatherCatV1.15B25,2013-08-21 21:32:00,
2013-08-21 17:37:00,86.9,63.6,30.04,ENE,75,1.0,1.0,46,0.00,,,0.00,WeatherCatV1.15B25,2013-08-21 21:37:00,
2013-08-21 17:42:00,86.8,63.5,30.04,East,90,2.0,3.0,46,0.00,,,0.00,WeatherCatV1.15B25,2013-08-21 21:42:00,
2013-08-21 17:47:00,86.7,62.8,30.04,South,191,0.0,1.0,45,0.00,,,0.00,WeatherCatV1.15B25,2013-08-21 21:47:00,
2013-08-21 17:52:00,86.5,62.6,30.04,West,260,0.0,1.0,45,0.00,,,0.00,WeatherCatV1.15B25,2013-08-21 21:52:00,
2013-08-21 17:57:00,86.2,63.0,30.04,NNW,348,0.0,1.0,46,0.00,,,0.00,WeatherCatV1.15B25,2013-08-21 21:57:00,
2013-08-21 18:02:00,86.0,62.8,30.04,East,100,1.0,1.0,46,0.00,,,0.00,WeatherCatV1.15B25,2013-08-21 22:02:00,
2013-08-21 18:07:00,85.7,62.5,30.05,SE,139,1.0,2.0,46,0.00,,,0.00,WeatherCatV1.15B25,2013-08-21 22:07:00,
2013-08-21 18:12:00,85.6,63.0,30.04,ESE,110,0.0,2.0,47,0.00,,,0.00,WeatherCatV1.15B25,2013-08-21 22:12:00,
2013-08-21 18:17:00,85.3,61.5,30.04,NNW,333,0.0,1.0,45,0.00,,,0.00,WeatherCatV1.15B25,2013-08-21 22:17:00,
2013-08-21 18:22:00,85.0,61.9,30.04,WSW,242,1.0,3.0,46,0.00,,,0.00,WeatherCatV1.15B25,2013-08-21 22:22:00,
2013-08-21 18:27:00,84.8,61.7,30.04,SSW,194,0.0,1.0,46,0.00,,,0.00,WeatherCatV1.15B25,2013-08-21 22:27:00,
2013-08-21 18:32:00,84.6,61.5,30.04,SSW,208,0.0,3.0,46,0.00,,,0.00,WeatherCatV1.15B25,2013-08-21 22:32:00,
2013-08-21 18:37:00,84.2,62.3,30.04,SW,232,0.0,1.0,48,0.00,,,0.00,WeatherCatV1.15B25,2013-08-21 22:37:00,
2013-08-21 18:42:00,83.9,62.1,30.04,SSE,162,1.0,1.0,48,0.00,,,0.00,WeatherCatV1.15B25,2013-08-21 22:42:00,
2013-08-21 18:47:00,83.7,62.5,30.04,ESE,110,0.0,0.0,49,0.00,,,0.00,WeatherCatV1.15B25,2013-08-21 22:47:00,
2013-08-21 18:52:00,83.3,62.7,30.04,SSE,154,0.0,1.0,50,0.00,,,0.00,WeatherCatV1.15B25,2013-08-21 22:52:00,
2013-08-21 18:57:00,83.0,63.0,30.04,ENE,70,0.0,1.0,51,0.00,,,0.00,WeatherCatV1.15B25,2013-08-21 22:57:00,
2013-08-21 19:02:00,82.8,63.3,30.04,SSW,204,0.0,0.0,52,0.00,,,0.00,WeatherCatV1.15B25,2013-08-21 23:02:00,
2013-08-21 19:07:00,82.5,63.6,30.04,SSW,204,0.0,0.0,53,0.00,,,0.00,WeatherCatV1.15B25,2013-08-21 23:07:00,
2013-08-21 19:12:00,82.0,63.2,30.03,SSW,204,0.0,0.0,53,0.00,,,0.00,WeatherCatV1.15B25,2013-08-21 23:12:00,
2013-08-21 19:17:00,81.6,63.3,30.03,SSW,205,0.0,0.0,54,0.00,,,0.00,WeatherCatV1.15B25,2013-08-21 23:17:00,
2013-08-21 19:22:00,81.2,63.5,30.03,SSW,205,0.0,0.0,55,0.00,,,0.00,WeatherCatV1.15B25,2013-08-21 23:22:00,
2013-08-21 19:27:00,80.8,63.6,30.03,SSW,205,0.0,0.0,56,0.00,,,0.00,WeatherCatV1.15B25,2013-08-21 23:27:00,
2013-08-21 19:32:00,80.4,63.7,30.03,ENE,74,0.0,1.0,57,0.00,,,0.00,WeatherCatV1.15B25,2013-08-21 23:32:00,
2013-08-21 19:37:00,80.1,64.0,30.04,ENE,73,0.0,1.0,58,0.00,,,0.00,WeatherCatV1.15B25,2013-08-21 23:37:00,
2013-08-21 19:42:00,79.8,63.7,30.04,ENE,74,0.0,0.0,58,0.00,,,0.00,WeatherCatV1.15B25,2013-08-21 23:42:00,
2013-08-21 19:47:00,79.4,63.8,30.04,ENE,74,0.0,0.0,59,0.00,,,0.00,WeatherCatV1.15B25,2013-08-21 23:47:00,
2013-08-21 19:52:00,79.1,64.0,30.04,ENE,73,0.0,0.0,60,0.00,,,0.00,WeatherCatV1.15B25,2013-08-21 23:52:00,
2013-08-21 19:57:00,78.8,64.2,30.04,ENE,74,0.0,0.0,61,0.00,,,0.00,WeatherCatV1.15B25,2013-08-21 23:57:00,
2013-08-21 20:02:00,78.4,63.8,30.04,ENE,74,0.0,0.0,61,0.00,,,0.00,WeatherCatV1.15B25,2013-08-22 00:02:00,
2013-08-21 20:07:00,78.1,64.0,30.04,ENE,74,0.0,0.0,62,0.00,,,0.00,WeatherCatV1.15B25,2013-08-22 00:07:00,
2013-08-21 20:12:00,77.7,64.1,30.04,ENE,74,0.0,0.0,63,0.00,,,0.00,WeatherCatV1.15B25,2013-08-22 00:12:00,
2013-08-21 20:17:00,77.4,64.2,30.04,ENE,73,0.0,0.0,64,0.00,,,0.00,WeatherCatV1.15B25,2013-08-22 00:17:00,
2013-08-21 20:22:00,77.2,64.1,30.04,ENE,74,0.0,0.0,64,0.00,,,0.00,WeatherCatV1.15B25,2013-08-22 00:22:00,
2013-08-21 20:27:00,77.0,64.3,30.05,ENE,74,0.0,0.0,65,0.00,,,0.00,WeatherCatV1.15B25,2013-08-22 00:27:00,
2013-08-21 20:32:00,76.7,64.5,30.05,SE,125,0.0,1.0,66,0.00,,,0.00,WeatherCatV1.15B25,2013-08-22 00:32:00,
2013-08-21 20:37:00,76.6,64.8,30.05,SE,126,0.0,0.0,67,0.00,,,0.00,WeatherCatV1.15B25,2013-08-22 00:37:00,
2013-08-21 20:42:00,76.3,64.9,30.05,SE,126,0.0,0.0,68,0.00,,,0.00,WeatherCatV1.15B25,2013-08-22 00:42:00,
2013-08-21 20:47:00,76.0,64.7,30.05,SE,126,0.0,0.0,68,0.00,,,0.00,WeatherCatV1.15B25,2013-08-22 00:47:00,
2013-08-21 20:52:00,75.7,64.8,30.05,SE,126,0.0,0.0,69,0.00,,,0.00,WeatherCatV1.15B25,2013-08-22 00:52:00,
2013-08-21 20:57:00,75.5,64.6,30.05,SE,126,0.0,0.0,69,0.00,,,0.00,WeatherCatV1.15B25,2013-08-22 00:57:00,
2013-08-21 21:02:00,75.2,64.7,30.05,SE,126,0.0,0.0,70,0.00,,,0.00,WeatherCatV1.15B25,2013-08-22 01:02:00,
2013-08-21 21:07:00,74.9,64.8,30.05,SE,126,0.0,0.0,71,0.00,,,0.00,WeatherCatV1.15B25,2013-08-22 01:07:00,
2013-08-21 21:12:00,74.7,65.1,30.05,SE,125,0.0,0.0,72,0.00,,,0.00,WeatherCatV1.15B25,2013-08-22 01:12:00,
2013-08-21 21:17:00,74.4,64.8,30.05,SE,126,0.0,0.0,72,0.00,,,0.00,WeatherCatV1.15B25,2013-08-22 01:17:00,
2013-08-21 21:22:00,74.1,64.9,30.05,SE,126,0.0,0.0,73,0.00,,,0.00,WeatherCatV1.15B25,2013-08-22 01:22:00,
2013-08-21 21:27:00,73.9,64.7,30.05,SE,126,0.0,0.0,73,0.00,,,0.00,WeatherCatV1.15B25,2013-08-22 01:27:00,
2013-08-21 21:32:00,73.6,64.8,30.05,SE,126,0.0,0.0,74,0.00,,,0.00,WeatherCatV1.15B25,2013-08-22 01:32:00,
2013-08-21 21:37:00,73.4,65.0,30.05,SE,126,0.0,0.0,75,0.00,,,0.00,WeatherCatV1.15B25,2013-08-22 01:37:00,
2013-08-21 21:42:00,73.2,65.2,30.05,SE,125,0.0,0.0,76,0.00,,,0.00,WeatherCatV1.15B25,2013-08-22 01:42:00,
2013-08-21 21:47:00,73.0,65.0,30.05,SE,125,0.0,0.0,76,0.00,,,0.00,WeatherCatV1.15B25,2013-08-22 01:47:00,
2013-08-21 21:52:00,72.9,65.3,30.05,SE,126,0.0,0.0,77,0.00,,,0.00,WeatherCatV1.15B25,2013-08-22 01:52:00,
2013-08-21 21:57:00,72.7,65.1,30.05,SE,126,0.0,0.0,77,0.00,,,0.00,WeatherCatV1.15B25,2013-08-22 01:57:00,
2013-08-21 22:02:00,72.5,65.2,30.04,SE,125,0.0,0.0,78,0.00,,,0.00,WeatherCatV1.15B25,2013-08-22 02:02:00,
2013-08-21 22:07:00,72.3,65.0,30.04,SE,126,0.0,0.0,78,0.00,,,0.00,WeatherCatV1.15B25,2013-08-22 02:07:00,
2013-08-21 22:12:00,72.1,65.2,30.04,SE,126,0.0,0.0,79,0.00,,,0.00,WeatherCatV1.15B25,2013-08-22 02:12:00,
2013-08-21 22:17:00,72.0,65.1,30.04,SE,126,0.0,0.0,79,0.00,,,0.00,WeatherCatV1.15B25,2013-08-22 02:17:00,
2013-08-21 22:22:00,71.8,64.9,30.04,SE,125,0.0,0.0,79,0.00,,,0.00,WeatherCatV1.15B25,2013-08-22 02:22:00,
2013-08-21 22:27:00,71.7,65.2,30.04,SE,124,0.0,0.0,80,0.00,,,0.00,WeatherCatV1.15B25,2013-08-22 02:27:00,
2013-08-21 22:32:00,71.7,65.5,30.04,SE,124,0.0,0.0,81,0.00,,,0.00,WeatherCatV1.15B25,2013-08-22 02:32:00,
2013-08-21 22:37:00,71.9,65.4,30.04,ESE,111,0.0,0.0,80,0.00,,,0.00,WeatherCatV1.15B25,2013-08-22 02:37:00,
2013-08-21 22:42:00,72.1,65.6,30.04,ESE,111,0.0,0.0,80,0.00,,,0.00,WeatherCatV1.15B25,2013-08-22 02:42:00,
2013-08-21 22:47:00,72.2,65.7,30.04,ESE,111,0.0,0.0,80,0.00,,,0.00,WeatherCatV1.15B25,2013-08-22 02:47:00,
2013-08-21 22:52:00,72.1,65.6,30.04,ESE,112,0.0,0.0,80,0.00,,,0.00,WeatherCatV1.15B25,2013-08-22 02:52:00,
2013-08-21 22:57:00,72.0,65.5,30.04,ESE,111,0.0,0.0,80,0.00,,,0.00,WeatherCatV1.15B25,2013-08-22 02:57:00,
2013-08-21 23:02:00,72.1,65.6,30.04,ESE,111,0.0,0.0,80,0.00,,,0.00,WeatherCatV1.15B25,2013-08-22 03:02:00,
2013-08-21 23:07:00,72.3,65.4,30.04,ESE,111,0.0,0.0,79,0.00,,,0.00,WeatherCatV1.15B25,2013-08-22 03:07:00,
2013-08-21 23:12:00,72.3,65.4,30.04,ESE,111,0.0,0.0,79,0.00,,,0.00,WeatherCatV1.15B25,2013-08-22 03:12:00,
2013-08-21 23:17:00,72.4,65.5,30.04,South,183,0.0,0.0,79,0.00,,,0.00,WeatherCatV1.15B25,2013-08-22 03:17:00,
2013-08-21 23:22:00,72.4,65.5,30.04,East,101,0.0,1.0,79,0.00,,,0.00,WeatherCatV1.15B25,2013-08-22 03:22:00,
2013-08-21 23:27:00,72.5,65.6,30.04,South,187,0.0,0.0,79,0.00,,,0.00,WeatherCatV1.15B25,2013-08-22 03:27:00,
2013-08-21 23:32:00,72.4,65.5,30.04,South,188,0.0,0.0,79,0.00,,,0.00,WeatherCatV1.15B25,2013-08-22 03:32:00,
2013-08-21 23:37:00,72.2,65.3,30.03,South,187,0.0,0.0,79,0.00,,,0.00,WeatherCatV1.15B25,2013-08-22 03:37:00,
2013-08-21 23:42:00,72.1,65.6,30.03,South,188,0.0,0.0,80,0.00,,,0.00,WeatherCatV1.15B25,2013-08-22 03:42:00,
2013-08-21 23:47:00,71.9,65.4,30.03,South,188,0.0,0.0,80,0.00,,,0.00,WeatherCatV1.15B25,2013-08-22 03:47:00,
2013-08-21 23:52:00,71.7,65.2,30.03,South,188,0.0,0.0,80,0.00,,,0.00,WeatherCatV1.15B25,2013-08-22 03:52:00,
2013-08-21 23:57:00,71.4,65.3,30.03,South,189,0.0,0.0,81,0.00,,,0.00,WeatherCatV1.15B25,2013-08-22 03:57:00,